Albany, NY

5:04 AM EDT on October 21, 2019 (GMT -0400)
Albany International

Weather History for KALB - August, 2019

Change the Weather History Date:

Saturday, August 3, 2019

  Actual Average Record
Temperature  
Mean Temperature 76 °F 72 °F  
Max Temperature 85 °F 82 °F 97 °F (1975)
Min Temperature 66 °F 61 °F 44 °F (1976)
Degree Days  
Heating Degree Days 0 0  
Month to date heating degree days 0 0  
Since 1 June heating degree days 27 57  
Since 1 July heating degree days 0 5  
Cooling Degree Days 11 7  
Month to date cooling degree days 27 21  
Year to date cooling degree days 533 387  
Since 1 June cooling degree days 511 357  
Growing Degree Days 26 (Base 50)    
Moisture  
Dew Point 65 °F    
Average Humidity 71    
Maximum Humidity 87    
Minimum Humidity 55    
Precipitation  
Precipitation 0.81 in 0.13 in 1.52 in (1875)
Month to date precipitation 0.81 0.39  
Year to date precipitation 25.67 23.08  
Sea Level Pressure  
Sea Level Pressure 29.99 in    
Wind  
Wind Speed 6 mph (South)    
Max Wind Speed 17 mph    
Max Gust Speed 22 mph    
Visibility 10 miles    
Events Rain , Thunderstorm    
T = Trace of Precipitation, MM = Missing Value Source: NWS Daily Summary

Daily Weather History Graph

Daily Weather History Graph

Search for Another Location

Airport or City:

Astronomy

Aug. 03, 2019 Rise Set
Actual Time 5:48 AM EDT 8:13 PM EDT
Civil Twilight 5:16 AM EDT 8:45 PM EDT
Nautical Twilight 4:37 AM EDT 9:24 PM EDT
Astronomical Twilight 3:52 AM EDT 10:08 PM EDT
Moon 8:41 AM EDT (8/3) 10:13 PM EDT (8/3)
Length of Visible Light 15h 28m
Length of Day
14h 25m
Waxing Crescent, 10% of the Moon is Illuminated
Aug 3
Waxing Crescent
Aug 7
First Quarter
Aug 15
Full
Aug 23
Last Quarter
Aug 30
New

Hourly Weather History & Observations

Time (EDT) Temp. Heat Index Dew Point Humidity Pressure Visibility Wind Dir Wind Speed Gust Speed Precip Events Conditions
12:51 AM 71.1 °F - 63.0 °F 75% 30.06 in 10.0 mi SSW 4.6 mph - N/A   Mostly Cloudy
1:51 AM 72.0 °F - 63.0 °F 73% 30.05 in 10.0 mi South 6.9 mph - N/A   Mostly Cloudy
2:51 AM 73.0 °F - 63.0 °F 71% 30.05 in 10.0 mi South 5.8 mph - N/A   Overcast
3:51 AM 73.0 °F - 63.0 °F 71% 30.04 in 10.0 mi South 3.5 mph - N/A   Overcast
4:51 AM 72.0 °F - 63.0 °F 73% 30.04 in 10.0 mi SW 3.5 mph - N/A   Overcast
5:51 AM 71.1 °F - 63.0 °F 75% 30.06 in 10.0 mi SW 4.6 mph - N/A   Overcast
6:51 AM 71.1 °F - 63.0 °F 75% 30.04 in 10.0 mi South 5.8 mph - N/A   Mostly Cloudy
7:51 AM 73.0 °F - 64.9 °F 76% 30.04 in 10.0 mi SSE 5.8 mph - N/A   Mostly Cloudy
8:51 AM 73.9 °F - 64.0 °F 71% 30.04 in 10.0 mi South 4.6 mph - N/A   Overcast
9:51 AM 75.0 °F - 64.9 °F 71% 30.04 in 10.0 mi SSE 5.8 mph - N/A   Overcast
10:51 AM 79.0 °F - 66.0 °F 64% 30.02 in 10.0 mi South 5.8 mph - N/A   Mostly Cloudy
11:51 AM 82.0 °F 84.1 °F 66.0 °F 58% 30.00 in 10.0 mi Calm Calm - N/A   Mostly Cloudy
12:51 PM 84.0 °F 86.5 °F 66.9 °F 56% 29.97 in 10.0 mi North 3.5 mph - N/A   Mostly Cloudy
12:59 PM 84.0 °F 86.3 °F 66.0 °F 55% 29.98 in 10.0 mi Variable 3.5 mph - N/A Thunderstorm Thunderstorm
1:51 PM 77.0 °F - 68.0 °F 74% 29.97 in 2.0 mi Variable 4.6 mph - 0.05 in Rain , Thunderstorm Heavy Thunderstorms and Rain
2:05 PM 73.0 °F - 68.0 °F 84% 29.97 in 2.0 mi South 12.7 mph - 0.73 in Rain , Thunderstorm Light Thunderstorms and Rain
2:14 PM 75.0 °F - 69.1 °F 82% 29.96 in 8.0 mi SSE 12.7 mph 20.7 mph 0.76 in Rain , Thunderstorm Light Thunderstorms and Rain
2:44 PM 77.0 °F - 66.9 °F 71% 29.96 in 10.0 mi SSE 8.1 mph - 0.76 in   Mostly Cloudy
2:51 PM 78.1 °F - 68.0 °F 71% 29.95 in 10.0 mi SSE 9.2 mph - 0.76 in   Mostly Cloudy
3:51 PM 78.1 °F - 64.9 °F 64% 29.92 in 10.0 mi South 8.1 mph - N/A   Scattered Clouds
4:51 PM 75.9 °F - 64.9 °F 69% 29.92 in 10.0 mi South 10.4 mph - N/A   Mostly Cloudy
5:51 PM 73.9 °F - 64.0 °F 71% 29.92 in 10.0 mi South 5.8 mph - N/A   Mostly Cloudy
6:51 PM 75.9 °F - 64.0 °F 67% 29.92 in 10.0 mi South 8.1 mph - N/A   Mostly Cloudy
7:51 PM 73.9 °F - 64.0 °F 71% 29.93 in 10.0 mi South 11.5 mph - N/A   Mostly Cloudy
8:51 PM 72.0 °F - 64.0 °F 76% 29.93 in 10.0 mi South 3.5 mph - N/A   Scattered Clouds
9:51 PM 70.0 °F - 64.9 °F 84% 29.94 in 10.0 mi Calm Calm - N/A   Scattered Clouds
10:51 PM 69.1 °F - 64.0 °F 84% 29.94 in 10.0 mi South 5.8 mph - N/A   Scattered Clouds
11:51 PM 66.0 °F - 63.0 °F 90% 29.94 in 10.0 mi SSW 4.6 mph - N/A   Scattered Clouds